Location: Newark
(47.0749°S, 167.3048°W)
Time: 21:31:37
(UTC+00:00)

ISS - Visible Passes

Search period start: 22 January 2020 00:00
Search period end: 01 February 2020 00:00
Orbit: 415 x 421 km, 51.6° (Epoch: 23 January)

Date Brightness Start Highest point End Pass type
(mag) Time Alt. Az. Time Alt. Az. Time Alt. Az.
26 Jan -1.2 15:02:16 10° NNE 15:04:08 14° NE 15:06:00 10° E visible
28 Jan -2.5 15:01:22 10° NNW 15:04:26 32° NE 15:07:32 10° ESE visible
29 Jan -1.9 14:15:06 17° N 14:16:30 21° NE 14:19:09 10° E visible
30 Jan -1.3 13:28:54 13° NE 13:28:54 13° NE 13:30:23 10° ENE visible
30 Jan -3.7 15:01:49 12° NW 15:04:53 74° NNE 15:08:19 10° ESE visible
31 Jan -3.3 14:15:33 30° NNW 14:16:50 48° NNE 14:20:09 10° ESE visible
